Time,TemperatureF,DewpointF,PressureIn,WindDirection,WindDirectionDegrees,WindSpeedMPH,WindSpeedGustMPH,Humidity,HourlyPrecipIn,Conditions,Clouds,dailyrainin,SoftwareType,DateUTC
2013-06-26 00:33:00,78.0,72.0,-100.00,SSW,195,3.0,6.0,81,0.00,,,-99.99,,2013-06-26 04:33:00,
2013-06-26 00:43:00,78.0,72.0,-100.00,SSW,200,2.0,4.0,82,0.00,,,-99.99,,2013-06-26 04:43:00,
2013-06-26 01:11:00,78.0,72.0,-100.00,SW,220,2.0,6.0,83,0.00,,,-99.99,,2013-06-26 05:11:00,
2013-06-26 01:34:00,77.0,72.0,-100.00,SSW,200,1.0,4.0,85,0.00,,,-99.99,,2013-06-26 05:34:00,
2013-06-26 01:43:00,76.0,72.0,-100.00,South,190,2.0,4.0,86,0.00,,,-99.99,,2013-06-26 05:43:00,
2013-06-26 02:34:00,76.0,72.0,-100.00,SW,235,1.0,3.0,87,0.00,,,-99.99,,2013-06-26 06:34:00,
2013-06-26 02:43:00,76.0,72.0,-100.00,SW,220,1.0,6.0,87,0.00,,,-99.99,,2013-06-26 06:43:00,
2013-06-26 02:53:00,76.0,72.0,-100.00,SW,215,1.0,6.0,87,0.00,,,-99.99,,2013-06-26 06:53:00,
2013-06-26 03:01:00,76.0,72.0,-100.00,SW,220,1.0,3.0,88,0.00,,,-99.99,,2013-06-26 07:01:00,
2013-06-26 03:11:00,76.0,72.0,-100.00,SSW,195,1.0,6.0,87,0.00,,,-99.99,,2013-06-26 07:11:00,
2013-06-26 03:33:00,76.0,72.0,-100.00,SSW,195,0.0,4.0,87,0.00,,,-99.99,,2013-06-26 07:33:00,
2013-06-26 03:43:00,73.0,66.0,-100.00,North,5,4.0,12.0,79,0.00,,,-99.99,,2013-06-26 07:43:00,
2013-06-26 04:33:00,68.0,67.0,-100.00,WSW,245,3.0,9.0,98,1.10,,,-99.99,,2013-06-26 08:33:00,
2013-06-26 04:42:00,67.0,67.0,-100.00,East,95,2.0,9.0,98,9.61,,,-99.99,,2013-06-26 08:42:00,
2013-06-26 04:52:00,67.0,66.0,-100.00,ESE,115,1.0,4.0,99,1.69,,,-99.99,,2013-06-26 08:52:00,
2013-06-26 05:01:00,66.0,66.0,-100.00,East,80,2.0,6.0,99,0.00,,,-99.99,,2013-06-26 09:01:00,
2013-06-26 05:22:00,67.0,66.0,-100.00,SSE,160,1.0,3.0,99,0.00,,,-99.99,,2013-06-26 09:22:00,
2013-06-26 05:33:00,67.0,66.0,-100.00,SSE,160,0.0,6.0,99,0.00,,,-99.99,,2013-06-26 09:33:00,
2013-06-26 05:43:00,67.0,66.0,-100.00,West,260,3.0,6.0,99,0.00,,,-99.99,,2013-06-26 09:43:00,
2013-06-26 06:12:00,66.0,66.0,-100.00,West,260,1.0,6.0,99,0.00,,,-99.99,,2013-06-26 10:12:00,
2013-06-26 06:22:00,66.0,66.0,-100.00,SW,230,1.0,7.0,99,0.00,,,-99.99,,2013-06-26 10:22:00,
2013-06-26 06:34:00,67.0,67.0,-100.00,West,275,3.0,7.0,99,0.00,,,-99.99,,2013-06-26 10:34:00,
2013-06-26 06:43:00,67.0,66.0,-100.00,West,265,2.0,7.0,99,0.00,,,-99.99,,2013-06-26 10:43:00,
2013-06-26 07:12:00,67.0,67.0,-100.00,South,180,2.0,8.0,99,0.00,,,-99.99,,2013-06-26 11:12:00,
2013-06-26 07:22:00,67.0,67.0,-100.00,SW,215,2.0,8.0,99,0.00,,,-99.99,,2013-06-26 11:22:00,
2013-06-26 07:33:00,68.0,67.0,-100.00,West,270,2.0,8.0,99,0.00,,,-99.99,,2013-06-26 11:33:00,
2013-06-26 07:44:00,68.0,68.0,-100.00,SW,230,4.0,9.0,98,0.00,,,-99.99,,2013-06-26 11:44:00,
2013-06-26 08:02:00,68.0,67.0,-100.00,NE,55,1.0,7.0,97,0.00,,,-99.99,,2013-06-26 12:02:00,
2013-06-26 08:12:00,68.0,67.0,-100.00,SW,220,1.0,6.0,97,0.00,,,-99.99,,2013-06-26 12:12:00,
2013-06-26 08:22:00,69.0,68.0,-100.00,SW,225,2.0,7.0,96,0.00,,,-99.99,,2013-06-26 12:22:00,
2013-06-26 08:33:00,69.0,68.0,-100.00,West,280,1.0,6.0,96,0.00,,,-99.99,,2013-06-26 12:33:00,
2013-06-26 08:42:00,70.0,67.0,-100.00,ENE,70,2.0,6.0,91,0.00,,,-99.99,,2013-06-26 12:42:00,
2013-06-26 09:02:00,70.0,68.0,-100.00,South,190,1.0,3.0,93,0.00,,,-99.99,,2013-06-26 13:02:00,
2013-06-26 09:43:00,70.0,69.0,-100.00,SW,230,2.0,8.0,96,0.00,,,-99.99,,2013-06-26 13:43:00,
2013-06-26 10:34:00,71.0,69.0,-100.00,SSW,205,1.0,8.0,94,0.00,,,-99.99,,2013-06-26 14:34:00,
2013-06-26 10:42:00,72.0,70.0,-100.00,SSW,205,1.0,9.0,92,0.00,,,-99.99,,2013-06-26 14:42:00,
2013-06-26 11:02:00,75.0,71.0,-100.00,SW,215,2.0,6.0,86,0.00,,,-99.99,,2013-06-26 15:02:00,
2013-06-26 11:12:00,75.0,71.0,-100.00,SW,215,2.0,6.0,86,0.00,,,-99.99,,2013-06-26 15:12:00,
2013-06-26 11:34:00,74.0,69.0,-100.00,SW,235,2.0,15.0,84,0.00,,,-99.99,,2013-06-26 15:34:00,
2013-06-26 11:44:00,76.0,69.0,-100.00,WSW,245,4.0,11.0,78,0.00,,,-99.99,,2013-06-26 15:44:00,
2013-06-26 12:01:00,76.0,68.0,-100.00,SSE,165,4.0,12.0,77,0.00,,,-99.99,,2013-06-26 16:01:00,
2013-06-26 13:02:00,76.0,68.0,-100.00,SW,215,2.0,9.0,78,0.00,,,-99.99,,2013-06-26 17:02:00,
2013-06-26 13:11:00,73.0,71.0,-100.00,West,275,2.0,8.0,91,0.00,,,-99.99,,2013-06-26 17:11:00,
2013-06-26 13:23:00,73.0,71.0,-100.00,SSW,210,2.0,6.0,94,0.00,,,-99.99,,2013-06-26 17:23:00,
2013-06-26 13:43:00,76.0,72.0,-100.00,SSW,210,1.0,6.0,88,0.00,,,-99.99,,2013-06-26 17:43:00,
2013-06-26 14:01:00,76.0,71.0,-100.00,SW,235,1.0,8.0,84,0.00,,,-99.99,,2013-06-26 18:01:00,
2013-06-26 14:43:00,81.0,68.0,-100.00,West,275,6.0,12.0,65,0.00,,,-99.99,,2013-06-26 18:43:00,
2013-06-26 15:02:00,81.0,70.0,-100.00,SW,235,3.0,11.0,71,0.00,,,-99.99,,2013-06-26 19:02:00,
2013-06-26 15:22:00,81.0,70.0,-100.00,South,185,1.0,12.0,68,0.00,,,-99.99,,2013-06-26 19:22:00,
2013-06-26 16:12:00,-999.0,-99.9,-100.00,WSW,250,1.0,8.0,-999,0.00,,,-99.99,,2013-06-26 20:12:00,
2013-06-26 16:22:00,-999.0,-99.9,-100.00,SSW,195,1.0,11.0,-999,0.00,,,-99.99,,2013-06-26 20:22:00,
2013-06-26 16:34:00,-999.0,-99.9,-100.00,South,170,2.0,9.0,-999,0.00,,,-99.99,,2013-06-26 20:34:00,
2013-06-26 16:43:00,-999.0,-99.9,-100.00,SSW,210,2.0,8.0,-999,0.00,,,-99.99,,2013-06-26 20:43:00,
2013-06-26 17:02:00,84.0,69.0,-100.00,SW,215,1.0,7.0,60,0.00,,,-99.99,,2013-06-26 21:02:00,
2013-06-26 17:12:00,-999.0,-99.9,-100.00,SSE,165,2.0,6.0,-999,0.00,,,-99.99,,2013-06-26 21:12:00,
2013-06-26 17:33:00,-999.0,-99.9,-100.00,SW,225,2.0,8.0,-999,0.00,,,-99.99,,2013-06-26 21:33:00,
2013-06-26 18:11:00,81.0,70.0,-100.00,SW,220,2.0,6.0,70,0.00,,,-99.99,,2013-06-26 22:11:00,
2013-06-26 18:22:00,82.0,72.0,-100.00,SW,215,2.0,9.0,72,0.00,,,-99.99,,2013-06-26 22:22:00,
2013-06-26 18:34:00,81.0,71.0,-100.00,South,180,2.0,6.0,72,0.00,,,-99.99,,2013-06-26 22:34:00,
2013-06-26 18:43:00,82.0,72.0,-100.00,South,180,1.0,3.0,70,0.00,,,-99.99,,2013-06-26 22:43:00,
2013-06-26 19:34:00,79.0,71.0,-100.00,SSW,205,1.0,6.0,76,0.00,,,-99.99,,2013-06-26 23:34:00,
2013-06-26 19:43:00,79.0,71.0,-100.00,South,190,1.0,7.0,78,0.00,,,-99.99,,2013-06-26 23:43:00,
2013-06-26 19:52:00,78.0,72.0,-100.00,South,190,1.0,5.0,80,0.00,,,-99.99,,2013-06-26 23:52:00,
2013-06-26 20:01:00,78.0,72.0,-100.00,South,185,1.0,6.0,81,0.00,,,-99.99,,2013-06-27 00:01:00,
2013-06-26 20:12:00,78.0,72.0,-100.00,South,185,1.0,6.0,81,0.00,,,-99.99,,2013-06-27 00:12:00,
2013-06-26 20:22:00,78.0,72.0,-100.00,South,185,1.0,6.0,81,0.00,,,-99.99,,2013-06-27 00:22:00,
2013-06-26 20:33:00,77.0,72.0,-100.00,SSW,195,1.0,4.0,85,0.00,,,-99.99,,2013-06-27 00:33:00,
2013-06-26 20:43:00,77.0,72.0,-100.00,SSW,195,2.0,6.0,84,0.00,,,-99.99,,2013-06-27 00:43:00,
2013-06-26 20:53:00,75.0,67.0,-100.00,WNW,285,7.0,13.0,75,0.00,,,-99.99,,2013-06-27 00:53:00,
2013-06-26 21:01:00,73.0,67.0,-100.00,West,265,4.0,17.0,81,-99.99,,,-99.99,,2013-06-27 01:01:00,
2013-06-26 21:32:00,68.0,67.0,-100.00,WSW,250,3.0,7.0,98,0.00,,,-99.99,,2013-06-27 01:32:00,
2013-06-26 21:43:00,68.0,67.0,-100.00,SW,235,2.0,6.0,98,1.10,,,-99.99,,2013-06-27 01:43:00,
2013-06-26 22:01:00,67.0,67.0,-100.00,SSW,210,1.0,6.0,98,0.00,,,-99.99,,2013-06-27 02:01:00,
2013-06-26 22:32:00,67.0,67.0,-100.00,South,170,1.0,4.0,98,0.00,,,-99.99,,2013-06-27 02:32:00,
2013-06-26 22:42:00,67.0,67.0,-100.00,South,170,1.0,6.0,98,0.00,,,-99.99,,2013-06-27 02:42:00,
2013-06-26 23:02:00,67.0,66.0,-100.00,SE,140,1.0,6.0,98,0.55,,,-99.99,,2013-06-27 03:02:00,
2013-06-26 23:11:00,67.0,67.0,-100.00,West,275,1.0,6.0,98,0.55,,,-99.99,,2013-06-27 03:11:00,
2013-06-26 23:42:00,67.0,67.0,-100.00,WSW,255,2.0,6.0,98,1.10,,,-99.99,,2013-06-27 03:42:00,